Showing default

COSMOS 2227, 22284

Orbit data source: Space-Track

COSMOS 2227, 22284 is a payload satellite owned by GRU (CIS) in LEO that was launched on Fri, 25 Dec 1992 UTC via a ZENIT-2 launch vehicle from the Tyuratam Missile And Space Complex (TTMTR). Payload-class satellites include a variety of spacecraft equipped with specific instruments for various scientific and technological missions. These include communications satellites like Starlink; space stations such as the ISS; scientific satellites like the Hubble; Earth observation satellites from companies like Planet Labs, Umbra, and HawkEye 360; GPS; miniature CubeSats for education and research; and military/defense satellites.

Loading next visibility...
Identifier
22284, 1992-093A
Orbit
LEO
Last TLE update
18 hours ago
Origin
Manufacturer
Yuzhnoe
Mission
Defense Sigint
Bus & Motor
TSELINA-2, Unknown motor
Mass
3,250 kg wet, 3,250 kg dry
Launch date (UTC)
1992-12-25 (33 years ago)
Launch vehicle
ZENIT-2
Launch site
Tyuratam Missile And Space Complex (TTMTR)
Object type
Payload
Rocket body
Debris
Shape & HBR
Unknown shape, 19 m
Radar Cross Section
Large (>1 m²)

Expand to show TLE details & history

TLE from 18 hours ago
0 COSMOS 2227
1 22284U 92093A   25186.45158345 -.00000202  00000-0 -81776-4 0  9997
2 22284  70.9767 190.5479 0017154  40.1519 320.0867 14.13713730677825
Epoch: 2025-07-05T10:50Z
TLE epoch observation values (Epoch: 2025-07-05T10:50:16.81Z)
Latitude
0.00003°
Longitude
104.28844°
Altitude
839.59 km
Speed
7.438 km/s
True Right ascension
12h 42m 11s
True Declination
0° 00' 00"
Sunlit
Object was in daylight at epoch
Visualization orbit readout
Latitude
-70.99211°
Longitude
7.32585°
Altitude
880.625 km
Speed
7.407 km/s
Apparent Right ascension
05h 25m 44s
Apparent Declination
-56° 36' 56"
Sunlit
Object is in daylight
Visualization observer readout
Local Sidereal Time
17:02:21
Azimuth
190.968° SSW
Elevation
-72.868°
Doppler factor
1
Orbital elements
Apogee altitude
857.01 km
Perigee altitude
832.23 km
Semi-major axis
7,222.757 km
Eccentricity
0.00172
Inclination
70.9767°
RAAN
190.5479°
Arg. of periapsis
40.1519°
True anomaly
Unknown
Mean anomaly
320.0867°
Eccentric anomaly
Unknown
Mean motion
3.53581 °/min
Orbital period
101.82 mins
BSTAR
-0.000081776
Loading maneuver chart data...
Loading SW <> Apogee altitude chart data...
Loading historical data...
Loading historical data...
Loading historical data...
Loading historical data...
Loading historical data...
Loading historical data...
Loading historical data...

COSMOS 2227 Visibility forecast

Observer location: undefined°, undefined°

Span
Click to sort rows by Start time (UTC) header in descending order
Start Az.
Max El. time (UTC)
Max El. Az.
Max El.
End time (UTC)
End Az.
9 mins2025-07-06 11:11:04.255Z343.828° N2025-07-06 11:15:04.255Z56.468° ENE43.374°2025-07-06 11:20:04.255Z148.801° SSE
4 mins2025-07-06 12:57:04.255Z280.395° WNW2025-07-06 12:59:04.255Z256.829° W14.321°2025-07-06 13:01:04.255Z234.755° WSW
6 mins2025-07-07 00:20:04.255Z136.478° SSE2025-07-07 00:23:04.255Z96.035° ESE20.013°2025-07-07 00:26:04.255Z59.253° ENE
8 mins2025-07-07 02:03:04.255Z231.314° WSW2025-07-07 02:06:04.255Z282.408° WNW36.888°2025-07-07 02:11:04.255Z10° NNE
|